Weather Roundup
Issued by NWS Corpus Christi, TX

Home | Current Version | Previous Version | Text Only | Print | Product List | Glossary On
Versions: 1 2 3 4 5 6 7 8 9 10 11 12 13 14 15 16 17 18 19 20 21 22 23 24 25 26 27 28 29 30 31 32 33 34 35 36 37 38 39 40 41 42 43 44 45 46 47 48 49 50
000
ASUS44 KCRP 121910
HRRCRP

SOUTH TEXAS REGIONAL WEATHER ROUNDUP
NATIONAL WEATHER SERVICE CORPUS CHRISTI TX
200 PM CDT SAT JUL 12 2014


TXZ229>244-122000-
...CORPUS CHRISTI AREA OBSERVATIONS...

CITY           SKY/WX    TMP DP  RH WIND       PRES   REMARKS
CORPUS CHRISTI MOSUNNY   91  73  55 E17G24    30.12S HX  99
NAS CORPUS CHR MOSUNNY   90  76  63 E15       30.13S HX 101
ROCKPORT       SUNNY     90  73  57 SE13      30.12F HX  98
KINGSVILLE NAS MOSUNNY   96  71  44 SE16G23   30.10F HX 103
ALICE          MOSUNNY   96  66  37 SE16G22   30.10F HX  99
FALFURRIAS     MOSUNNY   86  64  47 SE6       30.09F
$$

...VICTORIA AREA OBSERVATIONS...

CITY           SKY/WX    TMP DP  RH WIND       PRES   REMARKS
VICTORIA         N/A    N/A N/A N/A MISG      30.13F
BEEVILLE       FAIR      93  71  47 SE10G18   30.13F HX 100
PLEASANTON     SUNNY     93  62  35 SE12      30.14F HX  94
SAN ANTONIO    MOSUNNY   91  64  40 VRB5      30.16F HX  92
$$

...LAREDO AREA OBSERVATIONS...

CITY           SKY/WX    TMP DP  RH WIND       PRES   REMARKS
LAREDO         MOSUNNY   96  67  38 SE10G20   30.11F HX 100
COTULLA        MOSUNNY   96  62  32 SE14G20   30.10F HX  97
DEL RIO        MOSUNNY   89  66  46 SE12G25   30.11F HX  91
MCALLEN        MOSUNNY   91  73  55 E10       30.10F HX  99
HEBBRONVILLE   MOSUNNY   93  64  37 SE7G16    30.11F HX  95
$$

...OTHER TEXAS OBSERVATIONS...

CITY           SKY/WX    TMP DP  RH WIND       PRES   REMARKS
BROWNSVILLE    PTSUNNY   90  74  59 SE13      30.11S HX  99
HOUSTON        MOSUNNY   90  70  51 E8        30.14F HX  95
COL. STATION   SUNNY     93  65  39 S7        30.15F HX  95
AUSTIN         MOSUNNY   93  60  33 S7        30.14F HX  93
WACO           SUNNY     94  61  33 S9        30.14F HX  94
FORT WORTH     SUNNY     96  59  29 S12       30.12F HX  95
WICHITA FALLS  SUNNY     96  52  22 S16G26    30.10F HX  93
LUBBOCK        PTSUNNY   82  63  52 S12G20    30.19F
EL PASO        MOSUNNY   89  55  31 VRB6      30.11F
$$

...MARINE OBSERVATIONS...

STATION/POSITION TIME  SKY/WX   TEMP    WIND        PRES    VSBY  WAVE   SWELL
                                AIR SEA DIR/SP/G                  HT/PER HT/PER
                 (UTC)          (F)     (DEG/KT/KT) (MB)    (MI)  (FT/S) (FT/S)
PORT ARANSAS     1900            82 85   90/ 10/ 11 1020.6F
BUOY 90 E PORT A NOT AVBL
BUOY 45 SE BAFFI 1900            83 83  100/  8/ 10 1020.1F         2/ 6   2/ 6
BUOY 200 E PT IS NOT AVBL
BUOY 15 E GALVES 1800            82 86              1021.2
$$


USA.gov is the U.S. government's official web portal to all federal, state and local government web resources and services.